Temperature
23 20 20 20 21 22 23 23 22 23 25 24 24 24 24 25 25 24 23 23 23 23 23 23 23 23 22 22 21 21 21 20 20 19 19 19 18 18 18 18 18 18 17 17
21 20 21 22 23 23 23 22 22 23 25 25 24 24 24 24 24 24 23 22 22 22 22 22 23 22 22 22 21 21 21 20 20 20 19 19 18 18 18 17 17 17 17 17
20 21 23 23 23 23 23 22 23 23 24 24 24 23 22 23 23 23 23 23 22 22 22 22 22 22 22 21 21 21 21 20 20 19 19 18 18 18 17 17 17 17 17 17
21 22 23 23 23 23 22 24 24 24 23 21 23 21 21 21 22 21 22 22 21 21 22 22 22 21 21 21 21 20 20 20 20 19 19 18 18 17 17 17 17 17 17 17
21 23 23 23 24 24 23 24 24 24 22 21 21 21 20 21 21 21 21 21 21 21 21 21 21 21 21 21 20 20 20 19 19 19 19 18 18 17 17 17 17 17 17 16
22 23 24 24 25 25 24 23 22 20 19 20 21 21 20 19 20 21 21 21 21 21 21 21 21 20 20 20 20 20 20 19 19 18 18 18 18 17 17 17 17 17 16 16
22 23 24 25 24 24 23 20 19 19 18 19 20 20 19 20 21 21 20 20 20 20 20 20 20 20 20 20 20 19 19 19 19 18 18 18 17 17 17 17 16 16 16 16
20 21 23 24 24 22 22 20 19 19 19 19 20 20 20 20 21 21 21 21 20 20 20 20 20 20 20 19 19 19 19 19 18 18 18 17 17 17 16 16 16 16 16 16
20 21 24 25 25 23 22 20 19 18 19 19 19 20 20 20 20 20 20 20 20 20 20 20 20 20 19 19 19 19 19 18 18 18 17 17 17 16 16 16 16 16 16 15
21 21 23 24 24 23 22 20 18 18 18 19 19 20 19 19 19 19 19 19 19 19 19 20 20 19 19 19 19 19 19 18 18 17 17 17 17 16 16 16 16 15 15 15
20 20 21 22 23 22 22 21 19 17 17 18 18 18 20 19 19 19 18 19 19 19 19 19 19 19 19 19 18 18 18 18 18 17 17 17 16 16 16 16 15 15 15 15
20 18 18 20 22 23 22 21 18 18 18 17 17 18 20 18 19 19 19 19 19 19 19 19 19 19 18 18 18 18 18 18 17 17 17 17 16 16 16 15 15 15 15 15
20 17 18 19 20 21 21 21 19 17 17 17 17 18 19 18 18 19 19 18 18 18 18 18 18 18 18 18 18 17 17 17 17 17 16 16 16 16 15 15 15 15 15 14
20 16 17 18 18 19 20 21 20 18 17 17 18 18 18 17 17 17 18 18 18 18 18 18 18 18 18 17 17 17 17 17 17 16 16 16 16 15 15 15 15 14 14 14
18 17 18 18 20 20 21 21 21 20 18 18 18 18 17 17 17 17 18 18 17 17 17 17 17 17 17 17 17 17 16 16 16 16 16 16 15 15 15 15 14 14 14 14
16 17 18 18 20 20 20 20 20 20 20 19 18 18 18 18 18 18 17 17 16 16 16 17 17 16 16 16 16 16 16 16 16 16 15 15 15 15 14 14 14 14 14 14
15 16 16 16 18 19 18 19 19 19 19 18 18 17 17 17 17 17 17 17 17 16 16 16 16 16 16 16 16 16 16 16 15 15 15 15 15 14 14 14 14 14 14 14
15 14 14 15 17 17 17 18 19 19 18 18 17 17 17 17 17 17 18 17 17 16 16 16 16 16 16 16 16 16 15 15 15 15 15 15 14 14 14 14 14 14 13 13
15 15 14 14 15 16 18 18 18 18 17 17 17 16 16 17 17 16 17 17 17 17 16 16 16 16 15 15 15 15 15 15 15 15 14 14 14 14 14 14 13 13 13 13
15 14 14 14 15 15 16 18 19 17 16 17 16 16 16 16 14 15 16 16 16 16 16 16 16 15 15 15 15 15 14 14 14 14 14 14 14 14 14 14 13 13 13 13
15 14 14 14 14 15 16 18 18 16 16 17 17 17 16 15 15 16 16 16 16 16 16 15 15 15 15 14 14 14 14 14 14 14 14 14 14 14 14 13 13 13 13 13
14 13 13 13 14 14 16 17 16 15 16 17 17 17 17 16 16 16 16 16 15 15 15 15 15 14 14 14 14 14 14 14 14 14 14 13 13 13 13 13 13 13 13 12
13 13 12 13 13 14 16 16 17 17 16 16 17 17 17 16 15 15 15 15 15 15 15 14 14 14 13 13 13 13 13 13 13 13 13 13 13 13 13 13 13 13 12 12
13 13 12 12 13 14 15 16 16 16 16 16 17 16 16 15 15 15 15 15 14 14 14 14 13 13 13 13 13 13 13 13 13 13 13 13 13 13 12 12 12 12 12 12
12 13 12 12 13 14 15 16 16 16 16 16 16 16 15 15 14 14 14 14 14 14 13 13 13 13 12 12 12 12 12 12 12 12 12 12 12 12 12 12 12 12 12 12
12 12 12 12 13 12 14 15 15 15 15 15 15 15 15 15 14 14 13 13 13 13 13 13 13 12 12 12 12 12 12 12 12 12 12 12 12 12 12 12 12 12 12 12
Wind_Speed
2 4 5 8 8 8 5 4 7 9 7 2 4 7 8 6 8 9 9 10 10 9 9 9 9 9 9 7 7 7 7 5 5 4 3 3 2 1 1 1 2 3 3 3
2 5 11 8 5 5 5 6 8 8 5 1 3 5 4 4 6 9 11 11 10 8 6 8 9 9 9 8 7 7 7 6 6 4 3 3 3 2 2 0 1 1 2 3
8 8 7 7 7 6 7 7 7 6 5 4 2 5 5 3 1 3 6 8 9 12 11 10 10 10 9 8 7 7 6 6 5 4 3 3 3 2 1 1 1 1 2 2
7 9 6 6 9 8 8 9 7 5 1 4 1 2 7 4 2 3 4 5 7 8 8 9 9 9 10 9 7 6 6 6 5 5 4 5 4 2 1 1 1 0 1 1
7 6 7 8 10 8 9 8 4 3 2 2 2 2 7 3 3 4 5 6 7 7 8 8 8 8 8 7 7 6 6 5 4 4 4 4 3 2 2 2 2 1 1 1
9 7 6 8 8 7 4 1 5 5 4 2 5 3 6 4 6 5 4 6 7 7 7 6 5 5 5 5 5 6 7 5 4 4 4 5 5 4 3 2 2 1 1 1
7 7 6 4 2 2 4 5 3 5 3 5 4 2 6 6 5 7 7 7 8 7 6 7 7 6 5 6 5 5 6 5 5 5 4 4 5 5 4 3 2 2 0 0
3 6 5 3 6 5 4 9 8 5 5 5 2 3 5 5 2 2 6 8 9 9 7 7 8 8 7 6 5 5 6 6 5 4 3 2 4 3 3 3 3 3 2 1
5 6 5 4 4 7 4 4 8 7 3 1 3 3 4 3 2 3 5 6 9 9 8 7 7 7 7 7 5 6 6 5 5 5 4 3 3 3 3 3 2 2 1 1
6 4 5 4 1 1 7 7 5 5 4 3 4 3 4 4 4 4 6 7 8 7 7 7 7 7 6 6 5 5 6 6 5 5 5 4 3 3 3 3 2 2 2 1
4 4 5 2 2 4 1 3 4 4 6 6 4 5 5 8 7 6 5 6 8 8 8 7 6 6 6 5 5 5 5 5 4 5 4 3 3 3 3 3 2 3 2 2
4 5 3 6 5 4 5 5 6 5 3 5 4 6 3 3 4 5 5 6 7 8 7 7 7 6 5 5 4 4 5 5 4 4 4 4 4 3 3 3 3 2 2 2
4 5 1 6 6 4 1 2 4 5 4 4 4 5 2 2 2 3 5 6 7 7 7 6 5 5 5 5 4 5 4 5 5 5 4 3 3 4 4 3 3 2 2 2
5 5 6 8 7 3 2 2 2 4 4 4 6 5 2 1 2 2 4 6 7 7 7 6 5 4 4 4 4 5 4 4 4 4 4 4 4 4 4 3 3 3 3 3
5 4 4 4 4 2 2 3 2 3 6 7 7 6 7 6 5 5 6 7 6 5 6 6 5 4 3 3 3 4 4 4 4 4 4 4 4 3 2 3 3 2 3 3
4 4 2 1 1 1 3 3 2 2 2 4 5 4 5 5 4 5 6 7 7 6 5 6 6 5 4 3 3 3 4 4 4 4 4 3 3 3 3 3 3 3 2 2
2 4 3 2 2 2 3 3 2 2 1 4 4 5 3 4 5 7 7 7 6 5 4 5 6 5 4 3 3 4 3 4 4 4 4 3 3 3 4 4 3 3 3 2
5 4 3 2 2 3 6 2 2 3 1 2 4 4 5 5 4 4 6 7 7 6 5 4 4 3 3 2 2 2 3 3 4 4 3 3 4 4 3 4 4 4 3 3
6 6 4 3 2 4 4 3 1 3 1 1 5 5 4 5 5 2 2 5 6 6 5 4 4 3 2 2 2 2 2 3 3 4 4 4 4 4 4 4 4 4 3 3
5 6 5 4 3 5 6 4 1 5 1 2 4 5 5 5 3 3 3 3 4 4 4 4 3 3 3 2 2 3 2 2 3 4 4 4 4 5 5 5 4 3 3 3
3 3 3 3 3 4 5 4 1 3 6 4 4 5 4 3 5 5 4 4 4 4 3 4 4 3 2 2 3 2 2 2 3 2 3 2 3 4 4 4 3 3 3 2
3 3 3 3 3 6 4 2 2 5 3 3 4 4 4 3 4 4 5 4 4 4 4 4 4 2 1 2 3 2 2 2 2 2 3 2 2 2 3 3 3 3 3 3
2 4 4 5 6 5 2 2 2 3 3 2 3 4 6 5 4 4 5 4 3 4 3 3 3 2 1 2 3 3 3 2 1 1 2 3 2 1 2 3 3 2 3 3
1 2 3 1 2 1 1 1 2 2 2 3 4 5 6 5 4 4 5 4 3 2 2 2 3 2 1 2 2 2 2 1 1 2 3 3 2 1 1 1 2 3 3 3
3 1 2 1 2 2 2 1 1 2 3 4 4 5 5 6 5 4 4 4 3 3 3 2 2 2 2 2 2 2 2 1 1 2 2 2 2 2 1 0 1 2 3 5
3 4 5 5 5 4 4 3 1 2 3 3 4 4 4 6 5 4 3 3 3 3 3 3 3 2 2 2 2 2 2 2 1 1 1 2 2 2 2 2 1 2 2 3
Wind_Direction
201 119 211 224 204 201 229 264 274 271 278 283 232 235 234 208 177 177 174 172 170 179 173 156 152 148 142 139 143 152 147 152 147 146 148 145 156 160 153 161 143 148 153 142
34 230 223 217 223 213 240 263 277 286 286 250 232 256 255 214 192 184 176 174 167 155 147 154 154 151 152 153 152 153 153 151 153 160 159 151 146 144 152 147 89 123 127 130
203 235 218 212 232 232 246 223 240 258 307 354 54 332 310 294 216 171 173 172 166 164 165 169 164 158 156 157 164 160 154 144 145 137 118 103 82 66 60 48 38 20 103 118
234 241 235 220 227 210 244 237 224 235 240 281 122 249 286 269 259 209 189 166 165 165 162 166 164 163 162 167 163 147 143 136 133 131 136 137 138 148 182 158 145 14 60 95
244 226 213 224 231 214 222 230 211 213 183 287 302 170 278 277 226 220 190 166 157 157 151 158 163 167 166 159 154 148 141 136 135 138 144 146 141 149 132 106 90 70 28 42
247 251 212 217 238 218 206 49 22 38 68 294 256 187 271 252 222 200 170 152 147 146 145 144 137 136 148 145 145 152 147 140 138 144 143 144 143 137 120 107 106 80 26 21
284 280 255 221 242 289 112 95 31 356 1 254 266 180 248 258 229 185 166 149 145 146 146 148 151 149 150 146 150 153 148 150 153 146 145 146 145 141 143 146 142 138 107 0
227 275 257 217 185 196 188 145 161 196 223 267 313 223 258 285 307 149 141 138 140 143 149 156 160 156 155 151 146 151 161 160 160 152 148 148 147 144 141 148 154 162 182 208
191 249 266 241 199 161 169 174 172 153 184 253 275 266 310 338 10 122 139 138 145 154 154 155 150 149 151 153 155 155 158 157 161 161 154 165 158 149 150 154 149 164 181 185
173 232 273 272 67 120 159 160 109 132 164 228 267 246 226 252 234 191 167 160 159 154 147 145 150 154 155 160 161 150 155 164 163 160 174 181 169 160 149 140 145 155 154 146
162 183 286 318 197 203 126 114 121 141 156 164 219 259 226 209 200 189 181 164 155 152 150 154 154 149 146 148 150 153 152 147 150 154 164 171 171 161 146 148 163 165 153 139
168 140 244 262 262 203 171 170 148 157 219 173 178 257 292 192 194 171 158 144 146 144 147 150 145 137 137 144 152 155 153 153 162 157 158 174 173 155 152 166 181 171 164 161
144 122 95 328 328 354 98 162 152 143 140 164 180 252 333 73 100 128 137 134 136 137 140 134 131 137 147 155 159 157 157 161 157 146 150 161 168 172 177 185 184 172 158 145
129 125 165 203 227 235 274 279 191 138 163 197 199 212 267 168 141 130 137 140 134 139 137 128 127 138 156 161 161 160 164 161 152 149 152 161 177 187 189 186 177 165 154 147
110 143 183 214 226 229 267 277 248 193 186 188 201 195 216 202 181 171 153 140 133 133 142 147 148 153 160 158 157 161 166 162 157 157 167 182 185 175 175 168 162 149 148 154
82 133 138 259 277 346 312 292 261 234 176 173 165 217 219 182 173 160 150 142 144 152 156 152 149 151 162 166 168 166 170 167 153 157 172 175 163 158 165 173 162 150 148 154
88 117 120 231 284 5 286 265 205 158 178 161 183 215 162 133 157 166 160 151 156 162 163 162 162 164 168 170 162 170 182 163 153 163 175 172 168 173 184 180 166 176 185 172
144 123 133 162 79 221 245 262 137 139 218 158 154 162 150 147 145 151 155 157 164 162 161 164 159 157 161 154 156 158 157 158 160 170 179 183 179 184 184 176 181 189 189 187
152 143 128 130 178 255 274 278 173 145 313 231 152 150 133 116 88 62 146 158 166 166 167 169 162 153 149 143 135 125 134 154 164 180 193 193 184 183 185 190 196 197 187 196
90 113 126 137 164 224 246 261 177 111 259 285 142 153 163 124 121 223 211 151 143 142 148 144 128 115 136 166 137 121 156 162 194 204 199 192 183 181 191 194 194 192 186 201
58 73 131 160 194 255 261 274 83 163 224 224 164 165 164 169 190 190 159 145 141 124 127 131 127 128 162 174 137 133 166 201 217 208 179 177 181 183 183 182 184 182 186 184
171 157 172 149 181 241 285 55 158 214 218 181 156 155 141 140 131 130 136 138 131 119 113 121 126 140 185 162 141 147 214 236 220 180 164 171 177 188 172 168 178 180 180 184
168 178 177 179 208 238 242 177 196 164 150 161 146 138 133 127 129 128 130 133 132 126 128 130 133 145 208 177 156 173 233 248 244 178 182 184 182 187 178 175 183 189 193 199
286 116 117 145 253 251 287 75 84 103 124 145 134 125 121 121 129 132 132 131 132 125 132 135 131 150 235 223 187 193 220 227 204 203 203 190 185 187 158 182 190 192 203 208
239 125 127 194 257 326 325 5 97 90 88 90 105 115 123 120 118 128 138 145 156 159 164 157 158 192 223 222 209 211 208 189 243 236 211 194 186 186 175 157 222 205 215 211
232 187 174 209 217 200 235 252 169 127 120 116 114 111 117 128 133 134 144 157 157 170 167 157 177 196 206 203 211 219 199 176 185 235 219 198 188 190 185 180 323 336 242 232
Height
1497 1504 1510 1506 1505 1507 1508 1511 1512 1504 1494 1498 1499 1498 1493 1492 1494 1495 1497 1499 1502 1503 1505 1508 1511 1513 1515 1516 1518 1519 1520 1522 1523 1524 1525 1525 1525 1526 1525 1525 1525 1524 1524 1523
1503 1506 1498 1497 1498 1502 1506 1512 1510 1502 1493 1496 1499 1497 1493 1492 1493 1493 1495 1497 1499 1501 1504 1506 1509 1510 1512 1513 1516 1517 1518 1520 1521 1522 1523 1524 1524 1525 1525 1525 1524 1523 1523 1522
1503 1498 1493 1496 1500 1503 1504 1507 1506 1504 1497 1495 1500 1505 1499 1494 1491 1492 1493 1495 1496 1498 1500 1504 1506 1507 1510 1511 1514 1516 1517 1518 1520 1521 1522 1523 1523 1523 1523 1523 1523 1522 1522 1522
1497 1491 1491 1494 1497 1498 1505 1494 1495 1498 1506 1514 1506 1524 1507 1497 1494 1493 1493 1494 1495 1497 1499 1501 1504 1506 1508 1510 1513 1515 1516 1517 1518 1519 1520 1521 1521 1521 1521 1522 1522 1521 1521 1520
1494 1487 1489 1493 1490 1490 1493 1487 1491 1495 1504 1513 1510 1520 1513 1499 1498 1494 1492 1493 1494 1497 1499 1501 1503 1506 1508 1510 1512 1513 1515 1516 1517 1519 1519 1520 1520 1520 1521 1521 1520 1520 1520 1519
1486 1481 1482 1483 1481 1482 1484 1489 1495 1503 1513 1526 1514 1518 1517 1503 1496 1493 1492 1492 1493 1496 1499 1500 1503 1505 1507 1509 1511 1511 1513 1514 1516 1517 1518 1518 1518 1519 1520 1519 1519 1519 1518 1518
1489 1482 1477 1477 1482 1482 1485 1506 1526 1529 1536 1530 1511 1514 1513 1495 1489 1488 1489 1491 1494 1496 1498 1499 1501 1503 1505 1506 1508 1509 1511 1512 1514 1515 1516 1517 1517 1518 1518 1518 1518 1518 1517 1517
1499 1497 1478 1475 1479 1487 1488 1500 1525 1536 1537 1528 1512 1515 1504 1490 1488 1488 1488 1490 1493 1495 1497 1499 1500 1502 1503 1505 1506 1507 1509 1510 1513 1514 1515 1516 1516 1517 1517 1518 1517 1517 1517 1516
1495 1493 1473 1470 1471 1476 1488 1496 1498 1516 1520 1526 1520 1509 1499 1489 1488 1489 1490 1491 1492 1494 1495 1497 1499 1501 1502 1503 1505 1506 1508 1510 1511 1513 1514 1514 1515 1515 1516 1516 1516 1516 1516 1516
1482 1489 1476 1470 1470 1473 1477 1486 1502 1515 1528 1532 1522 1513 1509 1497 1492 1489 1489 1490 1490 1493 1494 1496 1497 1499 1501 1502 1504 1506 1507 1509 1510 1511 1512 1513 1514 1514 1514 1515 1515 1515 1515 1515
1477 1488 1483 1476 1478 1481 1482 1487 1496 1508 1513 1525 1530 1519 1491 1491 1488 1487 1486 1486 1488 1491 1493 1495 1496 1498 1500 1502 1503 1505 1506 1507 1508 1509 1511 1511 1512 1512 1513 1513 1513 1513 1513 1513
1475 1486 1493 1483 1472 1469 1474 1481 1492 1508 1512 1513 1520 1514 1485 1485 1484 1484 1484 1486 1488 1489 1492 1494 1495 1497 1499 1501 1503 1504 1505 1506 1507 1508 1509 1509 1510 1511 1511 1511 1512 1512 1512 1512
1473 1487 1500 1496 1487 1477 1477 1478 1483 1492 1504 1511 1516 1509 1486 1484 1484 1484 1485 1486 1488 1490 1492 1493 1495 1497 1498 1500 1502 1503 1504 1505 1505 1506 1507 1508 1509 1509 1509 1510 1510 1511 1510 1510
1468 1484 1495 1501 1495 1485 1482 1479 1479 1489 1504 1505 1502 1498 1490 1488 1487 1486 1487 1487 1488 1489 1491 1493 1494 1496 1498 1499 1500 1501 1502 1503 1504 1504 1505 1506 1506 1507 1507 1508 1508 1509 1509 1509
1469 1482 1482 1482 1478 1476 1478 1477 1477 1482 1488 1495 1493 1492 1488 1486 1486 1485 1485 1486 1488 1490 1491 1492 1493 1495 1497 1498 1499 1500 1500 1501 1502 1502 1503 1503 1504 1504 1505 1505 1506 1507 1507 1507
1471 1479 1480 1482 1477 1476 1478 1476 1475 1477 1478 1482 1485 1487 1480 1482 1484 1485 1486 1486 1487 1489 1490 1491 1492 1494 1495 1496 1497 1498 1499 1499 1500 1500 1501 1502 1502 1502 1502 1502 1503 1504 1505 1505
1474 1480 1487 1490 1481 1480 1487 1480 1477 1478 1477 1479 1485 1484 1480 1481 1482 1483 1484 1485 1486 1488 1489 1490 1492 1493 1494 1495 1495 1496 1497 1497 1498 1498 1498 1499 1499 1499 1500 1501 1501 1502 1502 1503
1473 1480 1489 1491 1488 1498 1487 1473 1472 1475 1476 1475 1476 1477 1478 1479 1481 1482 1482 1483 1485 1487 1488 1489 1490 1491 1492 1493 1494 1494 1495 1495 1496 1496 1496 1496 1497 1497 1497 1498 1499 1499 1500 1500
1465 1476 1487 1495 1497 1492 1480 1473 1473 1477 1480 1475 1475 1476 1478 1478 1480 1482 1483 1483 1484 1485 1487 1488 1489 1489 1491 1491 1492 1492 1493 1493 1494 1494 1494 1494 1495 1495 1495 1495 1496 1497 1497 1498
1466 1471 1484 1491 1495 1497 1483 1471 1468 1474 1483 1475 1473 1475 1477 1477 1483 1483 1482 1482 1483 1484 1485 1486 1486 1488 1488 1489 1490 1490 1490 1490 1491 1491 1492 1492 1492 1492 1492 1493 1493 1494 1495 1495
1476 1479 1485 1489 1492 1487 1475 1469 1469 1484 1483 1473 1473 1473 1475 1475 1477 1478 1479 1480 1481 1482 1483 1484 1484 1485 1486 1486 1487 1487 1488 1488 1488 1488 1489 1489 1490 1490 1490 1491 1491 1492 1492 1492
1479 1483 1486 1489 1493 1490 1471 1469 1474 1475 1470 1470 1470 1472 1473 1473 1474 1476 1477 1478 1478 1479 1481 1481 1482 1482 1483 1483 1484 1484 1485 1485 1486 1486 1486 1486 1487 1488 1488 1489 1489 1490 1490 1490
1475 1476 1478 1481 1482 1472 1468 1468 1469 1469 1469 1469 1469 1470 1471 1472 1473 1474 1475 1476 1477 1477 1478 1479 1479 1480 1480 1481 1481 1482 1483 1483 1483 1483 1483 1484 1484 1485 1486 1487 1487 1487 1488 1488
1471 1469 1473 1476 1473 1470 1469 1468 1468 1468 1469 1469 1469 1470 1470 1471 1472 1473 1474 1475 1476 1476 1477 1478 1478 1477 1478 1478 1479 1480 1481 1481 1481 1481 1481 1482 1482 1483 1484 1484 1485 1485 1485 1486
1470 1469 1472 1475 1472 1470 1469 1468 1468 1468 1468 1468 1469 1469 1470 1470 1471 1472 1473 1474 1474 1474 1475 1475 1475 1475 1475 1475 1476 1477 1479 1479 1479 1479 1480 1480 1480 1481 1481 1482 1482 1483 1483 1484
1467 1468 1471 1472 1469 1469 1469 1468 1468 1468 1467 1468 1468 1469 1470 1470 1471 1472 1473 1473 1474 1474 1473 1473 1474 1474 1473 1473 1474 1475 1476 1477 1477 1477 1477 1478 1478 1479 1479 1480 1480 1481 1481 1481